Location: Newark
(47.5000°N, 4.6167°E)
Time: 05:39:34
(UTC+00:00)

X-37B - Pass Details

Date: 10 December 2021
Orbit: 334 x 337 km, 45.0° (Epoch: 11 January)

Event Time Altitude Azimuth Distance (km) Brightness Sun altitude
Rises 16:38:33 0° 227° (SW) 2,097 6.0 -7.9°
Reaches altitude 10° 16:40:46 10° 212° (SSW) 1,263 4.2 -8.2°
Maximum altitude 16:43:04 22° 157° (SSE) 786 2.2 -8.6°
Drops below altitude 10° 16:45:22 10° 103° (ESE) 1,266 2.7 -8.9°
Enters shadow 16:45:33 - 101° (E) 1,328 2.8 -9.0°
